Location: Unspecified
(90.0000°S, 0.0000°E)
Time: 21:18:38
(UTC-05:00)

N. Korean satellite - Visible Passes

Search period start: 21 April 2019 00:00
Search period end: 01 May 2019 00:00
Orbit: 457 x 508 km, 97.2° (Epoch: 21 April)

Date Brightness Start Highest point End Pass type
(mag) Time Alt. Az. Time Alt. Az. Time Alt. Az.
21 Apr 7.5 00:17:24 10° NNW 00:20:31 27° W 00:23:38 10° SW visible
21 Apr 7.5 01:51:44 10° NW 01:54:50 27° WSW 01:57:57 10° SSW visible
21 Apr 7.5 03:26:03 10° WNW 03:29:10 27° SW 03:32:16 10° S visible
21 Apr 7.5 05:00:22 10° W 05:03:29 27° SSW 05:06:35 10° SSE visible
21 Apr 7.5 06:34:41 10° WSW 06:37:49 27° S 06:40:55 10° ESE visible
21 Apr 7.5 08:09:01 10° SW 08:12:08 27° SSE 08:15:14 10° E visible
21 Apr 7.5 09:43:20 10° SSW 09:46:27 27° SE 09:49:33 10° ENE visible
21 Apr 7.5 11:17:39 10° S 11:20:47 27° ESE 11:23:53 10° NE visible
21 Apr 7.5 12:51:58 10° SSE 12:55:06 27° E 12:58:12 10° NNE visible
21 Apr 7.5 14:26:18 10° SE 14:29:26 27° ENE 14:32:31 10° N visible
21 Apr 7.5 16:00:38 10° ESE 16:03:45 27° NE 16:06:51 10° NNW visible
21 Apr 7.5 17:34:57 10° ENE 17:38:04 27° NNE 17:41:10 10° NW visible
21 Apr 7.5 19:09:17 10° NE 19:12:23 27° N 19:15:29 10° WNW visible
21 Apr 7.5 20:43:36 10° NNE 20:46:43 27° NNW 20:49:49 10° W visible
21 Apr 7.5 22:17:55 10° N 22:21:02 27° NW 22:24:08 10° WSW visible
21 Apr 7.5 23:52:14 10° NNW 23:55:22 27° WNW 23:58:27 10° SW visible
22 Apr 7.5 01:26:34 10° NW 01:29:41 27° W 01:32:47 10° SSW visible
22 Apr 7.5 03:00:53 10° WNW 03:04:00 27° WSW 03:07:06 10° S visible
22 Apr 7.5 04:35:12 10° W 04:38:20 27° SSW 04:41:25 10° SSE visible
22 Apr 7.5 06:09:31 10° WSW 06:12:39 27° S 06:15:45 10° SE visible
22 Apr 7.5 07:43:51 10° SW 07:46:58 27° SSE 07:50:04 10° ESE visible
22 Apr 7.5 09:18:10 10° SSW 09:21:18 27° SE 09:24:24 10° E visible
22 Apr 7.5 10:52:30 10° S 10:55:37 27° ESE 10:58:43 10° ENE visible
22 Apr 7.5 12:26:49 10° SSE 12:29:56 27° E 12:33:02 10° NE visible
22 Apr 7.5 14:01:09 10° SE 14:04:16 27° ENE 14:07:21 10° NNE visible
22 Apr 7.5 15:35:28 10° ESE 15:38:35 27° NE 15:41:40 10° NNW visible
22 Apr 7.5 17:09:47 10° E 17:12:54 27° NNE 17:16:00 10° NW visible
22 Apr 7.5 18:44:07 10° ENE 18:47:13 27° N 18:50:19 10° WNW visible
22 Apr 7.5 20:18:26 10° NE 20:21:33 27° NNW 20:24:38 10° W visible
22 Apr 7.5 21:52:45 10° NNE 21:55:52 27° NW 21:58:58 10° WSW visible
22 Apr 7.5 23:27:05 10° N 23:30:12 27° WNW 23:33:17 10° SW visible
23 Apr 7.5 01:01:24 10° NW 01:04:31 27° W 01:07:36 10° SSW visible
23 Apr 7.5 02:35:44 10° WNW 02:38:51 27° WSW 02:41:56 10° S visible
23 Apr 7.5 04:10:02 10° W 04:13:10 27° SW 04:16:15 10° SSE visible
23 Apr 7.5 05:44:22 10° WSW 05:47:29 27° SSW 05:50:34 10° SE visible
23 Apr 7.5 07:18:42 10° SW 07:21:48 27° S 07:24:54 10° ESE visible
23 Apr 7.5 08:53:01 10° SSW 08:56:08 27° SSE 08:59:13 10° E visible
23 Apr 7.5 10:27:20 10° S 10:30:27 27° SE 10:33:32 10° ENE visible
23 Apr 7.5 12:01:40 10° SSE 12:04:46 27° E 12:07:51 10° NE visible
23 Apr 7.5 13:35:59 10° SE 13:39:05 27° ENE 13:42:11 10° NNE visible
23 Apr 7.5 15:10:18 10° ESE 15:13:25 27° NE 15:16:30 10° N visible
23 Apr 7.5 16:44:37 10° E 16:47:44 27° NNE 16:50:50 10° NNW visible
23 Apr 7.5 18:18:57 10° ENE 18:22:04 27° N 18:25:09 10° NW visible
23 Apr 7.5 19:53:16 10° NE 19:56:22 27° NNW 19:59:28 10° WNW visible
23 Apr 7.5 21:27:36 10° NNE 21:30:42 27° NW 21:33:47 10° W visible
23 Apr 7.5 23:01:55 10° N 23:05:01 27° WNW 23:08:07 10° SW visible
24 Apr 7.5 00:36:15 10° NNW 00:39:21 27° W 00:42:26 10° SSW visible
24 Apr 7.5 02:10:34 10° NW 02:13:40 27° WSW 02:16:45 10° S visible
24 Apr 7.5 03:44:53 10° WNW 03:47:59 27° SW 03:51:05 10° SSE visible
24 Apr 7.5 05:19:13 10° W 05:22:19 27° SSW 05:25:24 10° SE visible
24 Apr 7.5 06:53:32 10° WSW 06:56:38 27° S 06:59:43 10° ESE visible
24 Apr 7.5 08:27:51 10° SW 08:30:58 27° SSE 08:34:03 10° E visible
24 Apr 7.5 10:02:10 10° S 10:05:17 27° SE 10:08:22 10° ENE visible
24 Apr 7.5 11:36:30 10° SSE 11:39:36 27° ESE 11:42:41 10° NE visible
24 Apr 7.5 13:10:49 10° SE 13:13:56 27° E 13:17:00 10° NNE visible
24 Apr 7.5 14:45:08 10° ESE 14:48:15 27° ENE 14:51:19 10° N visible
24 Apr 7.5 16:19:27 10° E 16:22:34 27° NE 16:25:39 10° NNW visible
24 Apr 7.5 17:53:47 10° ENE 17:56:53 27° NNE 17:59:58 10° NW visible
24 Apr 7.5 19:28:06 10° NE 19:31:13 27° N 19:34:18 10° WNW visible
24 Apr 7.5 21:02:26 10° NNE 21:05:32 27° NW 21:08:37 10° W visible
24 Apr 7.5 22:36:45 10° N 22:39:51 27° WNW 22:42:56 10° WSW visible
25 Apr 7.5 00:11:05 10° NNW 00:14:10 27° W 00:17:16 10° SW visible
25 Apr 7.5 01:45:24 10° NW 01:48:29 27° WSW 01:51:35 10° SSW visible
25 Apr 7.5 03:19:43 10° WNW 03:22:49 27° SW 03:25:54 10° S visible
25 Apr 7.5 04:54:02 10° W 04:57:08 27° SSW 05:00:13 10° SSE visible
25 Apr 7.5 06:28:22 10° WSW 06:31:28 27° S 06:34:32 10° SE visible
25 Apr 7.5 08:02:41 10° SW 08:05:47 27° SSE 08:08:52 10° E visible
25 Apr 7.5 09:37:00 10° SSW 09:40:06 27° SE 09:43:11 10° ENE visible
25 Apr 7.5 11:11:20 10° S 11:14:26 27° ESE 11:17:30 10° NE visible
25 Apr 7.5 12:45:39 10° SSE 12:48:45 27° E 12:51:50 10° NNE visible
25 Apr 7.4 14:19:58 10° SE 14:23:04 27° ENE 14:26:09 10° N visible
25 Apr 7.4 15:54:18 10° ESE 15:57:23 27° NE 16:00:28 10° NNW visible
25 Apr 7.4 17:28:37 10° E 17:31:43 27° NNE 17:34:47 10° NW visible
25 Apr 7.4 19:02:56 10° NE 19:06:02 27° N 19:09:07 10° WNW visible
25 Apr 7.4 20:37:15 10° NNE 20:40:21 27° NNW 20:43:26 10° W visible
25 Apr 7.4 22:11:35 10° N 22:14:41 27° NW 22:17:45 10° WSW visible
25 Apr 7.4 23:45:54 10° NNW 23:49:00 27° WNW 23:52:05 10° SW visible
26 Apr 7.4 01:20:13 10° NW 01:23:19 27° W 01:26:24 10° SSW visible
26 Apr 7.4 02:54:33 10° WNW 02:57:39 27° WSW 03:00:43 10° S visible
26 Apr 7.4 04:28:52 10° W 04:31:58 27° SW 04:35:03 10° SSE visible
26 Apr 7.4 06:03:11 10° WSW 06:06:17 27° S 06:09:22 10° SE visible
26 Apr 7.4 07:37:31 10° SW 07:40:36 27° SSE 07:43:41 10° ESE visible
26 Apr 7.4 09:11:50 10° SSW 09:14:55 27° SE 09:18:00 10° E visible
26 Apr 7.4 10:46:10 10° S 10:49:15 27° ESE 10:52:20 10° ENE visible
26 Apr 7.4 12:20:29 10° SSE 12:23:34 27° E 12:26:39 10° NE visible
26 Apr 7.4 13:54:48 10° SE 13:57:54 27° ENE 14:00:58 10° NNE visible
26 Apr 7.4 15:29:07 10° ESE 15:32:13 27° NE 15:35:17 10° N visible
26 Apr 7.4 17:03:27 10° E 17:06:33 27° NNE 17:09:36 10° NW visible
26 Apr 7.4 18:37:46 10° ENE 18:40:52 27° N 18:43:56 10° WNW visible
26 Apr 7.4 20:12:05 10° NE 20:15:11 27° NNW 20:18:15 10° W visible
26 Apr 7.4 21:46:25 10° NNE 21:49:30 27° NW 21:52:34 10° WSW visible
26 Apr 7.4 23:20:44 10° N 23:23:49 27° WNW 23:26:54 10° SW visible
27 Apr 7.4 00:55:03 10° NNW 00:58:09 27° W 01:01:14 10° SSW visible
27 Apr 7.4 02:29:22 10° NW 02:32:28 27° WSW 02:35:32 10° S visible
27 Apr 7.4 04:03:42 10° W 04:06:47 27° SW 04:09:52 10° SSE visible
27 Apr 7.4 05:38:01 10° WSW 05:41:06 27° SSW 05:44:11 10° SE visible
27 Apr 7.4 07:12:20 10° SW 07:15:26 27° S 07:18:31 10° ESE visible
27 Apr 7.4 08:46:40 10° SSW 08:49:45 27° SSE 08:52:50 10° E visible
27 Apr 7.4 10:20:59 10° S 10:24:04 27° SE 10:27:09 10° ENE visible
27 Apr 7.4 11:55:18 10° SSE 11:58:24 27° ESE 12:01:28 10° NE visible
27 Apr 7.4 13:29:37 10° SE 13:32:43 27° E 13:35:47 10° NNE visible
27 Apr 7.4 15:03:57 10° ESE 15:07:02 27° NE 15:10:07 10° N visible
27 Apr 7.4 16:38:16 10° E 16:41:21 27° NNE 16:44:26 10° NNW visible
27 Apr 7.4 18:12:35 10° ENE 18:15:40 27° N 18:18:45 10° NW visible
27 Apr 7.4 19:46:54 10° NE 19:50:00 27° NNW 19:53:04 10° WNW visible
27 Apr 7.4 21:21:14 10° NNE 21:24:19 27° NW 21:27:24 10° W visible
27 Apr 7.4 22:55:33 10° N 22:58:38 27° WNW 23:01:43 10° WSW visible
28 Apr 7.5 00:29:53 10° NNW 00:33:04 27° W 00:36:02 10° SW visible
28 Apr 7.5 02:07:31 26° WSW 02:07:31 26° WSW 02:10:21 10° S visible
28 Apr 7.5 03:41:58 26° SW 03:41:58 26° SW 03:44:40 10° SSE visible
28 Apr 7.5 05:16:24 26° S 05:16:24 26° S 05:19:00 10° SE visible
28 Apr 7.6 06:50:49 25° SSE 06:50:49 25° SSE 06:53:19 10° ESE visible
28 Apr 7.6 08:25:14 25° SE 08:25:14 25° SE 08:27:39 10° E visible
28 Apr 7.6 09:59:39 25° ESE 09:59:39 25° ESE 10:01:57 10° ENE visible
28 Apr 7.7 11:34:05 24° E 11:34:05 24° E 11:36:17 10° NE visible
28 Apr 7.7 13:08:29 24° ENE 13:08:29 24° ENE 13:10:36 10° NNE visible
28 Apr 7.8 14:42:53 23° NNE 14:42:53 23° NNE 14:44:56 10° N visible
28 Apr 7.8 16:17:17 22° N 16:17:17 22° N 16:19:15 10° NNW visible
28 Apr 7.9 17:51:41 22° NNW 17:51:41 22° NNW 17:53:34 10° NW visible
28 Apr 7.9 19:26:04 22° NW 19:26:04 22° NW 19:27:53 10° WNW visible
28 Apr 8.0 21:00:29 21° WNW 21:00:29 21° WNW 21:02:13 10° W visible
28 Apr 8.0 22:34:52 21° W 22:34:52 21° W 22:36:32 10° WSW visible
29 Apr 8.0 00:09:16 20° WSW 00:09:16 20° WSW 00:10:51 10° SW visible
29 Apr 8.1 01:43:39 20° SW 01:43:39 20° SW 01:45:10 10° SSW visible
29 Apr 8.1 03:18:02 19° SSW 03:18:02 19° SSW 03:19:30 10° S visible
29 Apr 8.2 04:52:26 19° SSE 04:52:26 19° SSE 04:53:49 10° SSE visible
29 Apr 8.2 06:26:48 18° SE 06:26:48 18° SE 06:28:08 10° SE visible
29 Apr 8.2 08:01:12 18° ESE 08:01:12 18° ESE 08:02:27 10° ESE visible
29 Apr 8.3 09:35:34 17° E 09:35:34 17° E 09:36:47 10° E visible
29 Apr 8.3 11:09:57 17° ENE 11:09:57 17° ENE 11:11:06 10° NE visible
29 Apr 8.3 12:44:20 17° NE 12:44:20 17° NE 12:45:25 10° NNE visible
29 Apr 8.4 14:18:42 16° NNE 14:18:42 16° NNE 14:19:44 10° N visible
29 Apr 8.4 15:53:05 16° N 15:53:05 16° N 15:54:04 10° NNW visible
29 Apr 8.4 17:27:28 15° NNW 17:27:28 15° NNW 17:28:23 10° NW visible
29 Apr 8.5 19:01:50 15° NW 19:01:50 15° NW 19:02:42 10° WNW visible
29 Apr 8.5 20:36:13 15° WNW 20:36:13 15° WNW 20:37:02 10° W visible
29 Apr 8.5 22:10:35 14° WSW 22:10:35 14° WSW 22:11:20 10° WSW visible
29 Apr 8.6 23:44:58 14° SW 23:44:58 14° SW 23:45:40 10° SW visible
30 Apr 8.6 01:19:20 14° SSW 01:19:20 14° SSW 01:19:59 10° SSW visible
30 Apr 8.6 02:53:42 14° S 02:53:42 14° S 02:54:19 10° S visible
30 Apr 8.7 04:28:04 13° SSE 04:28:04 13° SSE 04:28:38 10° SSE visible
30 Apr 8.7 06:02:26 13° SE 06:02:26 13° SE 06:02:57 10° SE visible
30 Apr 8.7 07:36:48 13° ESE 07:36:48 13° ESE 07:37:16 10° ESE visible
30 Apr 8.7 09:11:11 12° E 09:11:11 12° E 09:11:35 10° E visible
30 Apr 8.8 10:45:32 12° ENE 10:45:32 12° ENE 10:45:55 10° ENE visible
30 Apr 8.8 12:19:54 12° NE 12:19:54 12° NE 12:20:14 10° NE visible
30 Apr 8.8 13:54:16 12° NNE 13:54:16 12° NNE 13:54:33 10° NNE visible
30 Apr 8.9 15:28:38 11° N 15:28:38 11° N 15:28:52 10° N visible
30 Apr 8.9 17:03:00 11° NNW 17:03:00 11° NNW 17:03:12 10° NNW visible
30 Apr 8.9 18:37:22 11° NW 18:37:22 11° NW 18:37:31 10° NW visible
30 Apr 8.9 20:11:44 11° W 20:11:44 11° W 20:11:50 10° W visible
30 Apr 8.9 21:46:05 10° WSW 21:46:05 10° WSW 21:46:10 10° WSW visible
30 Apr 9.0 23:20:27 10° SW 23:20:27 10° SW 23:20:29 10° SW visible
